TimeMDT,TemperatureF,Dew PointF,Humidity,Sea Level PressureIn,VisibilityMPH,Wind Direction,Wind SpeedMPH,Gust SpeedMPH,PrecipitationIn,Events,Conditions,WindDirDegrees,DateUTC
12:15 AM,37.4,32.0,81,30.43,10.0,East,3.5,-,N/A,,Clear,90,2012-10-15 06:15:00
12:35 AM,37.4,32.0,81,30.43,10.0,ESE,5.8,-,N/A,,Clear,120,2012-10-15 06:35:00
12:55 AM,37.4,32.0,81,30.43,10.0,SE,5.8,-,N/A,,Clear,130,2012-10-15 06:55:00
1:15 AM,35.6,30.2,81,30.43,10.0,ENE,3.5,-,N/A,,Clear,70,2012-10-15 07:15:00
1:35 AM,37.4,30.2,75,30.43,10.0,Calm,Calm,-,N/A,,Clear,0,2012-10-15 07:35:00
1:55 AM,37.4,30.2,75,30.43,10.0,SE,3.5,-,N/A,,Clear,140,2012-10-15 07:55:00
2:15 AM,35.6,30.2,81,30.42,10.0,Calm,Calm,-,N/A,,Clear,0,2012-10-15 08:15:00
2:35 AM,35.6,28.4,75,30.42,10.0,SE,5.8,-,N/A,,Clear,130,2012-10-15 08:35:00
2:55 AM,35.6,28.4,75,30.41,10.0,SE,6.9,-,N/A,,Clear,130,2012-10-15 08:55:00
3:15 AM,35.6,26.6,70,30.41,10.0,ESE,5.8,-,N/A,,Clear,110,2012-10-15 09:15:00
3:55 AM,35.6,26.6,70,30.38,10.0,SE,9.2,-,N/A,,Clear,130,2012-10-15 09:55:00
4:15 AM,35.6,24.8,65,30.38,10.0,SE,4.6,-,N/A,,Clear,130,2012-10-15 10:15:00
4:35 AM,35.6,23.0,60,30.37,10.0,East,3.5,-,N/A,,Clear,100,2012-10-15 10:35:00
4:55 AM,35.6,24.8,65,30.37,10.0,ESE,5.8,-,N/A,,Clear,120,2012-10-15 10:55:00
5:15 AM,35.6,24.8,65,30.37,10.0,ESE,5.8,-,N/A,,Clear,120,2012-10-15 11:15:00
5:35 AM,35.6,23.0,60,30.37,10.0,Calm,Calm,-,N/A,,Clear,0,2012-10-15 11:35:00
5:55 AM,35.6,23.0,60,30.37,10.0,ESE,5.8,-,N/A,,Clear,120,2012-10-15 11:55:00
6:15 AM,35.6,23.0,60,30.37,10.0,ESE,5.8,-,N/A,,Clear,120,2012-10-15 12:15:00
6:35 AM,35.6,21.2,56,30.37,10.0,SE,5.8,-,N/A,,Clear,140,2012-10-15 12:35:00
6:55 AM,35.6,21.2,56,30.37,10.0,ESE,4.6,-,N/A,,Clear,120,2012-10-15 12:55:00
7:15 AM,35.6,21.2,56,30.37,10.0,SE,6.9,-,N/A,,Clear,130,2012-10-15 13:15:00
7:35 AM,35.6,21.2,56,30.37,10.0,SE,5.8,-,N/A,,Clear,140,2012-10-15 13:35:00
7:55 AM,35.6,21.2,56,30.37,10.0,East,5.8,-,N/A,,Clear,100,2012-10-15 13:55:00
8:15 AM,37.4,21.2,52,30.38,10.0,SE,6.9,-,N/A,,Clear,140,2012-10-15 14:15:00
8:35 AM,39.2,21.2,49,30.38,10.0,ESE,6.9,-,N/A,,Clear,120,2012-10-15 14:35:00
8:55 AM,41.0,21.2,45,30.39,10.0,Calm,Calm,-,N/A,,Clear,0,2012-10-15 14:55:00
9:15 AM,42.8,19.4,39,30.39,10.0,East,3.5,-,N/A,,Clear,100,2012-10-15 15:15:00
9:35 AM,44.6,21.2,39,30.39,10.0,Calm,Calm,-,N/A,,Clear,0,2012-10-15 15:35:00
9:55 AM,46.4,21.2,37,30.39,10.0,Calm,Calm,-,N/A,,Clear,0,2012-10-15 15:55:00
10:15 AM,50.0,21.2,32,30.39,10.0,Calm,Calm,-,N/A,,Clear,0,2012-10-15 16:15:00
10:35 AM,51.8,12.2,21,30.39,10.0,Calm,Calm,-,N/A,,Clear,0,2012-10-15 16:35:00
10:55 AM,53.6,14.0,21,30.39,10.0,Calm,Calm,-,N/A,,Clear,0,2012-10-15 16:55:00
11:15 AM,55.4,10.4,17,30.38,10.0,Calm,Calm,-,N/A,,Clear,0,2012-10-15 17:15:00
11:35 AM,55.4,14.0,20,30.37,10.0,WSW,5.8,-,N/A,,Clear,250,2012-10-15 17:35:00
11:55 AM,55.4,14.0,20,30.37,10.0,West,5.8,-,N/A,,Clear,260,2012-10-15 17:55:00
12:15 PM,55.4,14.0,20,30.36,10.0,West,9.2,-,N/A,,Clear,260,2012-10-15 18:15:00
12:35 PM,57.2,15.8,20,30.36,10.0,WSW,9.2,-,N/A,,Clear,240,2012-10-15 18:35:00
12:55 PM,59.0,17.6,20,30.35,10.0,West,9.2,-,N/A,,Clear,260,2012-10-15 18:55:00
1:15 PM,59.0,17.6,20,30.34,10.0,West,11.5,-,N/A,,Clear,260,2012-10-15 19:15:00
1:35 PM,59.0,17.6,20,30.33,10.0,WSW,8.1,-,N/A,,Clear,250,2012-10-15 19:35:00
1:55 PM,59.0,19.4,22,30.32,10.0,West,11.5,-,N/A,,Clear,270,2012-10-15 19:55:00
2:15 PM,59.0,19.4,22,30.32,10.0,West,11.5,19.6,N/A,,Clear,270,2012-10-15 20:15:00
2:35 PM,59.0,21.2,23,30.31,10.0,West,9.2,-,N/A,,Clear,260,2012-10-15 20:35:00
2:55 PM,59.0,21.2,23,30.30,10.0,West,16.1,20.7,N/A,,Clear,260,2012-10-15 20:55:00
3:15 PM,59.0,23.0,25,30.30,10.0,West,11.5,18.4,N/A,,Clear,270,2012-10-15 21:15:00
3:35 PM,59.0,24.8,27,30.30,10.0,West,12.7,-,N/A,,Clear,260,2012-10-15 21:35:00
3:55 PM,59.0,23.0,25,30.30,10.0,West,13.8,18.4,N/A,,Clear,260,2012-10-15 21:55:00
4:15 PM,59.0,23.0,25,30.29,10.0,West,10.4,-,N/A,,Clear,260,2012-10-15 22:15:00
4:35 PM,59.0,21.2,23,30.29,10.0,West,11.5,-,N/A,,Clear,260,2012-10-15 22:35:00
4:55 PM,59.0,19.4,22,30.28,10.0,West,11.5,16.1,N/A,,Clear,260,2012-10-15 22:55:00
5:15 PM,57.2,17.6,21,30.28,10.0,West,11.5,-,N/A,,Clear,260,2012-10-15 23:15:00
5:35 PM,55.4,19.4,25,30.29,10.0,West,12.7,-,N/A,,Clear,260,2012-10-15 23:35:00
5:55 PM,53.6,23.0,30,30.29,10.0,WNW,5.8,-,N/A,,Clear,300,2012-10-15 23:55:00
6:15 PM,53.6,21.2,28,30.29,10.0,West,5.8,-,N/A,,Clear,280,2012-10-16 00:15:00
6:35 PM,53.6,21.2,28,30.28,10.0,West,4.6,-,N/A,,Clear,260,2012-10-16 00:35:00
6:55 PM,51.8,21.2,30,30.28,10.0,WSW,6.9,-,N/A,,Clear,250,2012-10-16 00:55:00
7:15 PM,50.0,21.2,32,30.28,10.0,Calm,Calm,-,N/A,,Clear,0,2012-10-16 01:15:00
7:35 PM,50.0,23.0,35,30.29,10.0,SE,4.6,-,N/A,,Clear,140,2012-10-16 01:35:00
7:55 PM,48.2,21.2,34,30.30,10.0,Calm,Calm,-,N/A,,Clear,0,2012-10-16 01:55:00
8:15 PM,46.4,21.2,37,30.30,10.0,Calm,Calm,-,N/A,,Clear,0,2012-10-16 02:15:00
8:35 PM,46.4,23.0,40,30.29,10.0,SE,5.8,-,N/A,,Clear,130,2012-10-16 02:35:00
8:55 PM,44.6,23.0,43,30.29,10.0,ESE,9.2,-,N/A,,Clear,120,2012-10-16 02:55:00
9:15 PM,44.6,23.0,43,30.30,10.0,ESE,6.9,-,N/A,,Clear,120,2012-10-16 03:15:00
9:35 PM,42.8,23.0,46,30.30,10.0,ESE,6.9,-,N/A,,Clear,120,2012-10-16 03:35:00
9:55 PM,44.6,23.0,43,30.29,10.0,ESE,5.8,-,N/A,,Clear,120,2012-10-16 03:55:00
10:15 PM,42.8,23.0,46,30.29,10.0,SE,5.8,-,N/A,,Clear,140,2012-10-16 04:15:00
10:35 PM,41.0,23.0,49,30.28,10.0,ESE,5.8,-,N/A,,Clear,120,2012-10-16 04:35:00
10:55 PM,41.0,23.0,49,30.28,10.0,SE,5.8,-,N/A,,Clear,130,2012-10-16 04:55:00
11:15 PM,41.0,21.2,45,30.27,10.0,SE,5.8,-,N/A,,Clear,130,2012-10-16 05:15:00
11:35 PM,41.0,21.2,45,30.26,10.0,SE,5.8,-,N/A,,Clear,130,2012-10-16 05:35:00
11:55 PM,41.0,23.0,49,30.26,10.0,SE,4.6,-,N/A,,Clear,140,2012-10-16 05:55:00